GW7176 Weather Reports


Display with metric or nautical units.
time (UTC)temp
F
wind
direction
speed
MPH
gust
MPH
rain 1hr
in
rain 24hr
in
rain mn
in
humidity
%
barometer
mb
20260506190055 85 236 3.0 6.0 0.00 0.00 0.00 79 1009.6
20260506184558 85 202 2.0 7.0 0.00 0.00 0.00 79 1009.8
20260506183059 85 181 0.0 8.0 0.00 0.00 0.00 79 1009.9
20260506181556 84 233 3.0 7.0 0.00 0.00 0.00 81 1010.0
20260506180055 83 274 3.0 9.0 0.00 0.00 0.00 83 1010.2
20260506174606 83 281 1.0 8.0 0.00 0.00 0.00 82 1010.4
20260506173056 83 0 2.0 9.0 0.00 0.00 0.00 83 1010.4
20260506171557 83 207 1.0 6.0 0.00 0.00 0.00 84 1010.5
20260506170054 82 270 1.0 7.0 0.00 0.00 0.00 84 1010.4
20260506164553 82 253 2.0 8.0 0.00 0.00 0.00 84 1010.4
20260506163109 82 280 2.0 7.0 0.00 0.00 0.00 86 1010.2
20260506161546 82 0 1.0 6.0 0.00 0.00 0.00 85 1010.0
20260506160053 81 0 0.0 7.0 0.00 0.00 0.00 87 1009.7
20260506154554 80 0 0.0 7.0 0.00 0.00 0.00 88 1009.6
20260506153052 80 0 0.0 7.0 0.00 0.00 0.00 89 1009.4
20260506151551 79 0 0.0 3.0 0.00 0.00 0.00 90 1009.5
20260506150052 79 0 0.0 6.0 0.00 0.00 0.00 90 1009.3
20260506144551 79 0 0.0 7.0 0.00 0.00 0.00 91 1009.1
20260506143051 78 302 0.0 5.0 0.00 0.00 0.00 93 1008.9
20260506141549 77 0 0.0 3.0 0.00 0.00 0.00 94 1009.0
20260506140052 76 205 0.0 5.0 0.00 0.00 0.00 95 1009.1
20260506134555 76 208 0.0 4.0 0.00 0.00 0.00 96 1008.8
20260506133052 76 0 0.0 2.0 0.00 0.00 0.00 96 1008.9
20260506131556 76 0 0.0 0.0 0.00 0.00 0.00 96 1009.1
20260506130054 75 0 0.0 0.0 0.00 0.00 0.00 96 1009.0
20260506124558 75 0 0.0 0.0 0.00 0.00 0.00 96 1009.1
20260506123110 75 0 0.0 2.0 0.00 0.00 0.00 96 1008.9
20260506121611 75 0 0.0 0.0 0.00 0.00 0.00 96 1009.0
20260506120051 75 0 0.0 0.0 0.00 0.00 0.00 96 1008.8
20260506114552 75 0 0.0 0.0 0.00 0.00 0.00 96 1008.7
20260506113050 75 0 0.0 0.0 0.00 0.00 0.00 96 1008.6
20260506111552 75 0 0.0 5.0 0.00 0.00 0.00 96 1008.5
20260506110101 75 0 0.0 3.0 0.00 0.00 0.00 95 1008.4
20260506104548 76 0 0.0 0.0 0.00 0.00 0.00 95 1008.3
20260506103047 75 0 0.0 0.0 0.00 0.00 0.00 95 1008.3
20260506101603 76 0 0.0 0.0 0.00 0.00 0.00 95 1008.5
20260506100048 76 0 0.0 1.0 0.00 0.00 0.00 95 1008.5
20260506094553 76 0 0.0 0.0 0.00 0.00 0.00 95 1008.4
20260506093051 76 0 0.0 0.0 0.00 0.00 0.00 95 1008.6
20260506091552 76 0 0.0 0.0 0.00 0.00 0.00 94 1008.5
20260506084557 76 0 0.0 0.0 0.00 0.00 0.00 94 1008.4
20260506083053 76 0 0.0 1.0 0.00 0.00 0.00 94 1008.4
20260506081549 76 0 0.0 0.0 0.00 0.00 0.00 94 1008.3
20260506073050 76 0 0.0 0.0 0.00 0.00 0.00 94 1008.7
20260506071557 76 0 0.0 0.0 0.00 0.00 0.00 93 1008.8
20260506061551 77 0 0.0 5.0 0.00 0.00 0.00 91 1009.2
20260506050112 77 0 3.0 9.0 0.00 0.00 0.00 90 1009.3
20260506044551 77 276 1.0 12.0 0.00 0.00 0.00 90 1009.2
20260506043050 77 234 2.0 10.0 0.00 0.00 0.00 90 1008.9
20260506041601 77 0 1.0 10.0 0.00 0.00 0.00 90 1008.9
20260506040053 77 0 1.0 7.0 0.00 0.00 0.00 90 1008.8
20260506034554 77 276 3.0 10.0 0.00 0.00 0.00 89 1008.4
20260506033051 78 220 0.0 8.0 0.00 0.00 0.00 89 1008.3
20260506031551 78 0 1.0 8.0 0.00 0.00 0.00 89 1008.3
20260506030050 78 221 1.0 9.0 0.00 0.00 0.00 89 1008.3
20260506024550 78 281 3.0 9.0 0.00 0.00 0.00 89 1008.0
20260506023107 78 189 2.0 9.0 0.00 0.00 0.00 89 1007.8
20260506021554 78 201 2.0 8.0 0.00 0.00 0.00 89 1007.4
20260506020052 78 228 4.0 10.0 0.00 0.00 0.00 89 1007.2
20260506014551 78 189 2.0 10.0 0.00 0.00 0.00 88 1007.3
20260506013054 78 0 3.0 13.0 0.00 0.00 0.00 87 1007.1
20260506011551 79 245 4.0 9.0 0.00 0.00 0.00 86 1007.1
20260506010054 79 5.0 12.0 0.00 0.00 0.00 85 1006.8
20260506004557 79 256 3.0 13.0 0.00 0.00 0.00 84 1006.6
20260506003050 80 279 2.0 11.0 0.00 0.00 0.00 83 1006.6
20260506001554 80 289 7.0 16.0 0.00 0.00 0.00 82 1006.5
20260506000058 81 214 6.0 17.0 0.00 0.00 0.00 82 1006.4
20260505234550 82 228 6.0 13.0 0.00 0.00 0.00 81 1006.3
20260505233056 82 172 3.0 13.0 0.00 0.00 0.00 80 1006.3
20260505231555 82 7.0 15.0 0.00 0.00 0.00 80 1006.1
20260505230113 82 278 4.0 11.0 0.00 0.00 0.00 80 1006.2
20260505224551 82 293 6.0 17.0 0.00 0.00 0.00 79 1006.4
20260505223052 83 259 6.0 14.0 0.00 0.00 0.00 78 1006.5
20260505221555 83 0 5.0 18.0 0.00 0.00 0.00 78 1006.7
20260505220056 84 191 3.0 14.0 0.00 0.00 0.00 76 1006.6
20260505214549 84 277 1.0 12.0 0.00 0.00 0.00 76 1006.6
20260505213052 84 291 5.0 12.0 0.00 0.00 0.00 76 1006.7
20260505211559 85 301 6.0 14.0 0.00 0.00 0.00 75 1007.0
20260505210058 86 244 4.0 12.0 0.00 0.00 0.00 74 1007.2
20260505204549 85 254 5.0 12.0 0.00 0.00 0.00 75 1007.4
20260505203106 85 278 5.0 15.0 0.00 0.00 0.00 76 1007.5
20260505201549 86 249 6.0 11.0 0.00 0.00 0.00 73 1007.6
20260505194548 85 298 1.0 10.0 0.00 0.00 0.00 75 1008.0
20260505193102 85 299 2.0 9.0 0.00 0.00 0.00 75 1008.1
20260505191552 84 0 3.0 10.0 0.00 0.00 0.00 76 1008.3